Location: Mainz-Finthen
(49.9906°N, 8.1713°E)
Time: 01:22:37
(UTC+00:00)

BlueWalker 3 - Pass Details

Date: 01 December 2022
Orbit: 499 x 517 km, 53.2° (Epoch: 26 January)

Event Time Altitude Azimuth Distance (km) Brightness Sun altitude
Rises 17:46:21 0° 278° (W) 2,631 6.9 -21.3°
Reaches altitude 10° 17:48:36 10° 284° (WNW) 1,740 5.6 -21.6°
Enters shadow 17:52:16 51° 350° (N) 651 2.4 -22.2°
